timestamp,wind_dir_avg,wind_spd_avg,wind_spd_max_dir,wind_spd_gust,battery_voltage,lat,long
2022-02-20 00:04:01+00:00,160.0,5.42,152.0,6.58,12.49,47.59359,-54.27349
2022-02-20 00:14:00+00:00,181.0,5.72,183.0,6.24,12.49,47.59359,-54.27349
2022-02-20 00:24:00+00:00,184.0,4.43,209.0,5.61,12.49,47.59359,-54.27349
2022-02-20 00:34:00+00:00,181.0,6.1,181.0,6.53,12.49,47.59359,-54.27349
2022-02-20 00:44:00+00:00,178.0,5.28,169.0,5.75,12.49,47.59359,-54.27349
2022-02-20 00:54:00+00:00,179.0,6.11,179.0,6.84,12.49,47.59359,-54.27349
2022-02-20 01:04:00+00:00,179.0,5.79,181.0,6.92,12.49,47.59359,-54.27349
2022-02-20 01:14:01+00:00,180.0,6.26,183.0,6.81,12.41,47.59359,-54.27349
2022-02-20 01:24:01+00:00,184.0,7.21,204.0,8.45,12.41,47.59359,-54.27349
2022-02-20 01:34:01+00:00,181.0,8.15,180.0,9.02,12.41,47.59359,-54.27349
2022-02-20 01:44:01+00:00,203.0,6.21,218.0,7.02,12.41,47.59359,-54.27349
2022-02-20 01:54:01+00:00,179.0,6.44,199.0,7.35,12.41,47.59359,-54.27349
2022-02-20 02:04:01+00:00,191.0,6.15,195.0,7.22,12.41,47.59359,-54.27349
2022-02-20 02:14:01+00:00,182.0,7.27,180.0,8.5,12.41,47.59359,-54.27349
2022-02-20 02:24:01+00:00,176.0,6.82,176.0,8.16,12.41,47.59359,-54.27349
2022-02-20 02:34:01+00:00,182.0,6.05,185.0,7.06,12.41,47.59359,-54.27349
2022-02-20 02:44:01+00:00,182.0,8.0,183.0,9.36,12.41,47.59359,-54.27349
2022-02-20 02:54:01+00:00,203.0,5.87,205.0,6.67,12.41,47.59359,-54.27349
2022-02-20 03:04:01+00:00,215.0,5.88,212.0,7.16,12.41,47.59359,-54.27349
2022-02-20 03:14:01+00:00,199.0,5.23,191.0,7.01,12.41,47.59359,-54.27349
2022-02-20 03:24:01+00:00,213.0,8.1,213.0,9.29,12.41,47.59359,-54.27349
2022-02-20 03:34:01+00:00,189.0,8.24,198.0,9.47,12.41,47.59359,-54.27349
2022-02-20 03:44:01+00:00,196.0,7.1,200.0,8.03,12.41,47.59359,-54.27349
2022-02-20 03:54:01+00:00,203.0,6.16,191.0,6.92,12.41,47.59359,-54.27349
2022-02-20 04:04:01+00:00,196.0,7.77,193.0,10.7,12.41,47.59359,-54.27349
2022-02-20 04:14:00+00:00,199.0,9.02,203.0,10.06,12.41,47.59359,-54.27349
2022-02-20 04:24:00+00:00,202.0,9.75,204.0,10.97,12.41,47.59359,-54.27349
2022-02-20 04:34:00+00:00,227.0,7.87,227.0,11.07,12.41,47.59359,-54.27349
2022-02-20 04:44:00+00:00,198.0,9.65,194.0,10.69,12.41,47.59359,-54.27349
2022-02-20 04:54:00+00:00,200.0,7.88,203.0,9.08,12.41,47.59359,-54.27349
2022-02-20 05:04:00+00:00,208.0,7.74,206.0,8.9,12.41,47.59359,-54.27349
2022-02-20 05:14:00+00:00,218.0,7.75,225.0,8.87,12.41,47.59359,-54.27349
2022-02-20 05:24:00+00:00,200.0,5.45,199.0,6.08,12.41,47.59359,-54.27349
2022-02-20 05:34:00+00:00,211.0,7.72,204.0,8.98,12.41,47.59359,-54.27349
2022-02-20 05:44:00+00:00,202.0,6.76,200.0,7.39,12.41,47.59359,-54.27349
2022-02-20 05:54:00+00:00,213.0,5.63,213.0,6.43,12.41,47.59359,-54.27349
2022-02-20 06:04:00+00:00,232.0,7.23,236.0,8.31,12.41,47.59359,-54.27349
2022-02-20 06:14:00+00:00,225.0,7.07,221.0,8.48,12.41,47.59359,-54.27349
2022-02-20 06:24:00+00:00,226.0,8.13,232.0,9.83,12.41,47.59359,-54.27349
2022-02-20 06:34:00+00:00,231.0,5.85,232.0,7.05,12.41,47.59359,-54.27349
2022-02-20 06:44:00+00:00,220.0,8.01,234.0,9.62,12.41,47.59359,-54.27349
2022-02-20 06:54:00+00:00,228.0,5.44,221.0,6.97,12.41,47.59359,-54.27349
2022-02-20 07:04:00+00:00,215.0,7.87,216.0,9.19,12.41,47.59359,-54.27349
2022-02-20 07:14:00+00:00,208.0,8.11,204.0,9.62,12.41,47.59359,-54.27349
2022-02-20 07:24:00+00:00,194.0,7.54,199.0,8.43,12.41,47.59359,-54.27349
2022-02-20 07:34:00+00:00,200.0,7.35,202.0,8.17,12.41,47.59359,-54.27349
2022-02-20 07:44:00+00:00,200.0,7.12,192.0,8.3,12.41,47.59359,-54.27349
2022-02-20 07:54:00+00:00,184.0,6.45,185.0,7.87,12.41,47.59359,-54.27349
2022-02-20 08:04:00+00:00,177.0,7.86,173.0,8.92,12.41,47.59359,-54.27349
2022-02-20 08:14:01+00:00,185.0,6.33,175.0,7.28,12.33,47.59359,-54.27349
2022-02-20 08:24:01+00:00,166.0,6.83,183.0,8.0,12.33,47.59359,-54.27349
2022-02-20 08:34:01+00:00,176.0,4.97,175.0,5.9,12.33,47.59359,-54.27349
2022-02-20 08:44:01+00:00,185.0,5.81,185.0,7.39,12.33,47.59359,-54.27349
2022-02-20 08:54:01+00:00,171.0,5.63,177.0,6.66,12.33,47.59359,-54.27349
2022-02-20 09:04:01+00:00,163.0,4.63,164.0,5.26,12.33,47.59359,-54.27349
2022-02-20 09:14:01+00:00,176.0,3.87,154.0,4.6,12.33,47.59359,-54.27349
2022-02-20 09:24:01+00:00,160.0,3.95,165.0,4.71,12.33,47.59359,-54.27349
2022-02-20 09:34:01+00:00,178.0,3.92,167.0,4.53,12.33,47.59359,-54.27349
2022-02-20 09:44:01+00:00,165.0,3.45,163.0,4.18,12.33,47.59359,-54.27349
2022-02-20 09:54:01+00:00,147.0,5.33,148.0,5.84,12.33,47.59359,-54.27349
2022-02-20 10:04:01+00:00,126.0,4.74,134.0,5.76,12.33,47.59359,-54.27349
2022-02-20 10:14:01+00:00,125.0,4.51,125.0,5.05,12.33,47.59359,-54.27349
2022-02-20 10:24:01+00:00,123.0,3.39,127.0,4.06,12.33,47.59359,-54.27349
2022-02-20 10:34:01+00:00,122.0,2.99,124.0,3.38,12.33,47.59359,-54.27349
2022-02-20 10:44:01+00:00,109.0,1.84,114.0,3.18,12.33,47.59359,-54.27349
2022-02-20 10:54:01+00:00,121.0,1.72,130.0,2.52,12.33,47.59359,-54.27349
2022-02-20 11:04:01+00:00,80.0,2.18,73.0,2.58,12.33,47.59359,-54.27349
2022-02-20 11:14:01+00:00,113.0,0.93,107.0,1.54,12.33,47.59359,-54.27349
2022-02-20 11:24:01+00:00,146.0,3.61,147.0,4.07,12.33,47.59359,-54.27349
2022-02-20 11:34:01+00:00,99.0,2.03,88.0,3.41,12.33,47.59359,-54.27349
2022-02-20 11:44:01+00:00,78.0,2.16,55.0,2.9,12.33,47.59359,-54.27349
2022-02-20 11:54:01+00:00,101.0,2.43,110.0,3.59,12.33,47.59359,-54.27349
2022-02-20 12:04:01+00:00,118.0,2.85,124.0,3.69,12.33,47.59359,-54.27349
2022-02-20 12:14:01+00:00,108.0,2.29,108.0,2.98,12.41,47.59359,-54.27349
2022-02-20 12:24:01+00:00,113.0,2.58,109.0,3.32,12.41,47.59359,-54.27349
2022-02-20 12:34:01+00:00,80.0,1.66,98.0,2.67,12.41,47.59359,-54.27349
2022-02-20 12:44:01+00:00,110.0,1.53,128.0,3.42,12.41,47.59359,-54.27349
2022-02-20 12:54:01+00:00,88.0,1.27,80.0,1.95,12.41,47.59359,-54.27349
2022-02-20 13:04:01+00:00,42.0,1.64,49.0,2.11,12.41,47.59359,-54.27349
2022-02-20 13:14:00+00:00,37.0,4.12,44.0,4.5,12.49,47.59359,-54.27349
2022-02-20 13:24:00+00:00,42.0,3.17,42.0,3.75,12.49,47.59359,-54.27349
2022-02-20 13:34:00+00:00,49.0,3.35,57.0,3.86,12.49,47.59359,-54.27349
2022-02-20 13:44:00+00:00,41.0,3.99,39.0,4.66,12.49,47.59359,-54.27349
2022-02-20 13:54:00+00:00,46.0,4.47,47.0,5.05,12.49,47.59359,-54.27349
2022-02-20 14:04:00+00:00,37.0,5.06,35.0,5.82,12.49,47.59359,-54.27349
2022-02-20 14:14:00+00:00,24.0,5.73,25.0,6.19,12.81,47.59359,-54.27349
2022-02-20 14:24:00+00:00,19.0,5.9,17.0,6.82,12.81,47.59359,-54.27349
2022-02-20 14:34:00+00:00,32.0,5.91,33.0,6.56,12.81,47.59359,-54.27349
2022-02-20 14:44:00+00:00,26.0,5.17,24.0,5.74,12.81,47.59359,-54.27349
2022-02-20 14:54:00+00:00,24.0,4.95,24.0,5.74,12.81,47.59359,-54.27349
2022-02-20 15:04:00+00:00,27.0,4.65,24.0,5.15,12.81,47.59359,-54.27349
2022-02-20 15:14:00+00:00,23.0,5.94,29.0,6.72,13.29,47.59359,-54.27349
2022-02-20 15:24:00+00:00,13.0,4.97,11.0,6.0,13.29,47.59359,-54.27349
2022-02-20 15:34:00+00:00,18.0,4.43,19.0,5.25,13.29,47.59359,-54.27349
2022-02-20 15:44:00+00:00,29.0,4.25,27.0,4.74,13.29,47.59359,-54.27349
2022-02-20 15:54:00+00:00,3.0,4.77,2.0,5.41,13.29,47.59359,-54.27349
2022-02-20 16:04:00+00:00,2.0,4.82,2.0,5.32,13.29,47.59359,-54.27349
2022-02-20 16:14:01+00:00,354.0,4.45,345.0,5.23,13.68,47.59359,-54.27349
2022-02-20 16:24:01+00:00,3.0,5.83,6.0,6.45,13.68,47.59359,-54.27349
2022-02-20 16:34:01+00:00,358.0,5.59,4.0,7.28,13.68,47.59359,-54.27349
2022-02-20 16:44:01+00:00,344.0,8.42,350.0,9.28,13.68,47.59359,-54.27349
2022-02-20 16:54:01+00:00,346.0,8.82,349.0,10.04,13.68,47.59359,-54.27349
2022-02-20 17:04:01+00:00,349.0,10.41,353.0,11.4,13.68,47.59359,-54.27349
2022-02-20 17:14:01+00:00,0.0,10.06,3.0,12.01,13.6,47.59359,-54.27349
2022-02-20 17:24:01+00:00,357.0,8.23,358.0,9.37,13.6,47.59359,-54.27349
2022-02-20 17:34:01+00:00,350.0,10.28,346.0,11.65,13.6,47.59359,-54.27349
2022-02-20 17:44:01+00:00,358.0,9.41,352.0,10.81,13.6,47.59359,-54.27349
2022-02-20 17:54:01+00:00,358.0,10.15,1.0,11.37,13.6,47.59359,-54.27349
2022-02-20 18:04:01+00:00,354.0,9.59,354.0,10.73,13.6,47.59359,-54.27349
2022-02-20 18:14:00+00:00,354.0,8.28,0.0,9.53,13.68,47.59359,-54.27349
2022-02-20 18:24:00+00:00,342.0,9.95,341.0,11.3,13.68,47.59359,-54.27349
2022-02-20 18:34:00+00:00,343.0,8.57,339.0,9.73,13.68,47.59359,-54.27349
2022-02-20 18:44:00+00:00,339.0,10.39,343.0,12.19,13.68,47.59359,-54.27349
2022-02-20 18:54:00+00:00,353.0,8.91,355.0,11.07,13.68,47.59359,-54.27349
2022-02-20 19:04:00+00:00,345.0,10.75,341.0,11.86,13.68,47.59359,-54.27349
2022-02-20 19:14:01+00:00,349.0,8.54,357.0,9.92,13.76,47.59359,-54.27349
2022-02-20 19:24:01+00:00,355.0,9.48,357.0,10.71,13.76,47.59359,-54.27349
2022-02-20 19:34:01+00:00,348.0,9.62,352.0,10.72,13.76,47.59359,-54.27349
2022-02-20 19:44:01+00:00,343.0,9.2,343.0,10.1,13.76,47.59359,-54.27349
2022-02-20 19:54:01+00:00,337.0,8.39,315.0,11.75,13.76,47.59359,-54.27349
2022-02-20 20:04:01+00:00,345.0,8.15,353.0,9.54,13.76,47.59359,-54.27349
2022-02-20 20:14:01+00:00,348.0,8.23,342.0,9.19,13.53,47.59359,-54.27349
2022-02-20 20:24:01+00:00,344.0,7.09,335.0,9.08,13.53,47.59359,-54.27349
2022-02-20 20:34:01+00:00,346.0,7.82,353.0,8.67,13.53,47.59359,-54.27349
2022-02-20 20:44:01+00:00,340.0,7.25,338.0,8.14,13.53,47.59359,-54.27349
2022-02-20 20:54:01+00:00,344.0,9.29,342.0,10.87,13.53,47.59359,-54.27349
2022-02-20 21:04:01+00:00,338.0,7.99,340.0,8.99,13.53,47.59359,-54.27349
2022-02-20 21:14:01+00:00,0.0,6.25,355.0,7.94,13.13,47.59359,-54.27349
2022-02-20 21:24:01+00:00,356.0,7.14,344.0,8.3,13.13,47.59359,-54.27349
2022-02-20 21:34:01+00:00,359.0,5.66,3.0,6.51,13.13,47.59359,-54.27349
2022-02-20 21:44:01+00:00,331.0,6.56,329.0,8.05,13.13,47.59359,-54.27349
2022-02-20 21:54:01+00:00,343.0,6.29,342.0,8.09,13.13,47.59359,-54.27349
2022-02-20 22:04:01+00:00,334.0,6.9,339.0,8.1,13.13,47.59359,-54.27349
2022-02-20 22:14:00+00:00,338.0,6.38,342.0,7.15,12.57,47.59359,-54.27349
2022-02-20 22:24:00+00:00,325.0,6.47,324.0,7.5,12.57,47.59359,-54.27349
2022-02-20 22:34:00+00:00,326.0,5.09,324.0,6.42,12.57,47.59359,-54.27349
2022-02-20 22:44:00+00:00,320.0,6.6,305.0,7.77,12.57,47.59359,-54.27349
2022-02-20 22:54:00+00:00,310.0,6.36,292.0,10.36,12.57,47.59359,-54.27349
2022-02-20 23:04:00+00:00,323.0,6.42,329.0,7.75,12.57,47.59359,-54.27349
2022-02-20 23:14:00+00:00,324.0,6.93,328.0,7.91,12.49,47.59359,-54.27349
2022-02-20 23:24:00+00:00,322.0,6.85,325.0,7.43,12.49,47.59359,-54.27349
2022-02-20 23:34:00+00:00,303.0,6.24,300.0,7.45,12.49,47.59359,-54.27349
2022-02-20 23:44:00+00:00,302.0,5.86,298.0,7.39,12.49,47.59359,-54.27349
2022-02-20 23:54:00+00:00,305.0,5.43,295.0,6.49,12.49,47.59359,-54.27349
